Voltar ao catálogo

STARLINK-35891

AtivoComunicaçõesVLEO
NORAD 67045·PAYLOAD·🇺🇸 United States

Lançado Dec 11, 2025 de Cape Canaveral Space Force Station

Loading…

Próximas Passagens (próximas 24 horas)

TLE

AtualizadoSource: CelesTrak SupGP

Época: Sep 14, 2026, 21:02 UTC

1 67045C 25294R   26257.87687500  .00050026  00000+0  18122-2 0  2572
2 67045  43.0009  49.9390 0001553 272.4725 299.3833 15.27549225    17

Acompanhe STARLINK-35891 em tempo real com AllMySat

Download on the App Store